Time,TemperatureF,DewpointF,PressureIn,WindDirection,WindDirectionDegrees,WindSpeedMPH,WindSpeedGustMPH,Humidity,HourlyPrecipIn,Conditions,Clouds,dailyrainin,SoftwareType,DateUTC
2013-08-29 00:18:00,72.0,65.0,30.16,NNW,327,22.0,24.0,78,0.00,,,0.00,,2013-08-29 04:18:00,
2013-08-29 00:28:00,72.0,65.0,30.15,North,353,22.0,24.0,79,0.00,,,0.00,,2013-08-29 04:28:00,
2013-08-29 00:45:00,72.0,65.0,30.15,North,4,20.0,23.0,80,0.00,,,0.00,,2013-08-29 04:45:00,
2013-08-29 00:54:00,71.0,65.0,30.15,NNE,19,20.0,21.0,81,0.00,,,0.00,,2013-08-29 04:54:00,
2013-08-29 01:14:00,71.0,65.0,30.14,NNE,13,20.0,21.0,81,0.00,,,0.00,,2013-08-29 05:14:00,
2013-08-29 01:23:00,71.0,65.0,30.14,NNE,16,20.0,22.0,82,0.00,,,0.00,,2013-08-29 05:23:00,
2013-08-29 01:42:00,70.0,65.0,30.14,NNE,18,20.0,21.0,83,0.00,,,0.00,,2013-08-29 05:42:00,
2013-08-29 01:52:00,70.0,66.0,30.14,North,6,19.0,22.0,86,0.00,,,0.00,,2013-08-29 05:52:00,
2013-08-29 02:12:00,69.0,65.0,30.13,NNW,328,22.0,25.0,86,0.00,,,0.00,,2013-08-29 06:12:00,
2013-08-29 02:22:00,70.0,66.0,30.12,North,4,29.0,32.0,87,0.00,,,0.00,,2013-08-29 06:22:00,
2013-08-29 02:43:00,70.0,65.0,30.12,NNE,20,33.0,40.0,85,0.00,,,0.00,,2013-08-29 06:43:00,
2013-08-29 02:52:00,70.0,66.0,30.12,North,354,37.0,43.0,86,0.00,,,0.00,,2013-08-29 06:52:00,
2013-08-29 03:12:00,70.0,65.0,30.12,NNE,21,41.0,45.0,85,0.00,,,0.00,,2013-08-29 07:12:00,
2013-08-29 03:22:00,70.0,65.0,30.12,NNE,26,37.0,42.0,85,0.00,,,0.00,,2013-08-29 07:22:00,
2013-08-29 03:42:00,70.0,65.0,30.12,NNW,345,37.0,44.0,85,0.00,,,0.00,,2013-08-29 07:42:00,
2013-08-29 03:53:00,70.0,66.0,30.11,NNE,30,38.0,46.0,86,0.00,,,0.00,,2013-08-29 07:53:00,
2013-08-29 04:12:00,71.0,66.0,30.11,NNE,12,41.0,52.0,84,0.00,,,0.00,,2013-08-29 08:12:00,
2013-08-29 04:22:00,71.0,66.0,30.11,NNE,28,37.0,43.0,85,0.00,,,0.00,,2013-08-29 08:22:00,
2013-08-29 04:42:00,70.0,66.0,30.11,NNE,32,37.0,46.0,87,0.00,,,0.00,,2013-08-29 08:42:00,
2013-08-29 04:52:00,70.0,66.0,30.10,NNE,19,39.0,48.0,87,0.00,,,0.00,,2013-08-29 08:52:00,
2013-08-29 05:12:00,70.0,66.0,30.11,NNE,26,36.0,50.0,88,0.00,,,0.00,,2013-08-29 09:12:00,
2013-08-29 05:22:00,70.0,66.0,30.10,NNE,32,42.0,47.0,87,0.00,,,0.00,,2013-08-29 09:22:00,
2013-08-29 05:43:00,70.0,66.0,30.11,NNE,28,41.0,45.0,87,0.00,,,0.00,,2013-08-29 09:43:00,
2013-08-29 05:55:00,70.0,66.0,30.10,NNE,26,38.0,44.0,88,0.00,,,0.00,,2013-08-29 09:55:00,
2013-08-29 06:15:00,70.0,66.0,30.11,NNE,30,39.0,43.0,87,0.00,,,0.00,,2013-08-29 10:15:00,
2013-08-29 06:24:00,70.0,66.0,30.11,NNE,16,39.0,43.0,86,0.00,,,0.00,,2013-08-29 10:24:00,
2013-08-29 06:53:00,71.0,67.0,30.11,North,6,40.0,44.0,86,0.00,,,0.00,,2013-08-29 10:53:00,
2013-08-29 07:12:00,71.0,67.0,30.11,NNE,32,40.0,44.0,86,0.00,,,0.00,,2013-08-29 11:12:00,
2013-08-29 07:22:00,71.0,67.0,30.13,North,359,37.0,42.0,86,0.00,,,0.00,,2013-08-29 11:22:00,
2013-08-29 07:42:00,70.0,66.0,30.13,NNE,32,35.0,39.0,87,0.00,,,0.00,,2013-08-29 11:42:00,
2013-08-29 07:52:00,70.0,66.0,30.14,NNE,23,36.0,41.0,87,0.00,,,0.00,,2013-08-29 11:52:00,
2013-08-29 08:12:00,71.0,67.0,30.14,NNE,27,33.0,40.0,87,0.00,,,0.00,,2013-08-29 12:12:00,
2013-08-29 08:22:00,70.0,66.0,30.15,NNE,24,32.0,36.0,87,0.00,,,0.00,,2013-08-29 12:22:00,
2013-08-29 08:42:00,70.0,66.0,30.14,NNE,32,32.0,38.0,88,0.00,,,0.00,,2013-08-29 12:42:00,
2013-08-29 08:52:00,70.0,67.0,30.16,NNE,30,25.0,34.0,89,0.00,,,0.00,,2013-08-29 12:52:00,
2013-08-29 09:12:00,70.0,67.0,30.16,NNE,30,24.0,31.0,89,0.00,,,0.00,,2013-08-29 13:12:00,
2013-08-29 09:22:00,70.0,67.0,30.17,NE,47,19.0,26.0,90,0.00,,,0.00,,2013-08-29 13:22:00,
2013-08-29 09:42:00,70.0,67.0,30.17,NNE,30,19.0,27.0,89,0.00,,,0.00,,2013-08-29 13:42:00,
2013-08-29 09:52:00,70.0,67.0,30.17,NNE,33,18.0,25.0,90,0.00,,,0.00,,2013-08-29 13:52:00,
2013-08-29 10:11:00,70.0,67.0,30.18,NNE,25,19.0,26.0,89,0.00,,,0.00,,2013-08-29 14:11:00,
2013-08-29 10:22:00,70.0,67.0,30.18,NNE,26,16.0,24.0,90,0.00,,,0.00,,2013-08-29 14:22:00,
2013-08-29 10:42:00,70.0,67.0,30.19,NNE,30,17.0,22.0,90,0.00,,,0.00,,2013-08-29 14:42:00,
2013-08-29 10:52:00,71.0,67.0,30.19,NNE,27,15.0,21.0,88,0.00,,,0.00,,2013-08-29 14:52:00,
2013-08-29 11:12:00,71.0,67.0,30.19,North,10,15.0,18.0,87,0.00,,,0.00,,2013-08-29 15:12:00,
2013-08-29 11:22:00,72.0,68.0,30.19,North,8,11.0,16.0,87,0.00,,,0.00,,2013-08-29 15:22:00,
2013-08-29 11:43:00,72.0,68.0,30.19,NNE,26,11.0,15.0,86,0.00,,,0.00,,2013-08-29 15:43:00,
2013-08-29 11:53:00,73.0,68.0,30.19,North,8,13.0,17.0,85,0.00,,,0.00,,2013-08-29 15:53:00,
2013-08-29 12:13:00,73.0,69.0,30.19,NNE,15,7.0,15.0,87,0.00,,,0.00,,2013-08-29 16:13:00,
2013-08-29 12:24:00,73.0,69.0,30.19,NNE,22,12.0,17.0,86,0.00,,,0.00,,2013-08-29 16:24:00,
2013-08-29 12:43:00,73.0,68.0,30.18,NNE,27,12.0,16.0,85,0.00,,,0.00,,2013-08-29 16:43:00,
2013-08-29 12:54:00,73.0,68.0,30.18,NNE,12,13.0,17.0,84,0.00,,,0.00,,2013-08-29 16:54:00,
2013-08-29 13:13:00,74.0,68.0,30.18,NNE,18,12.0,16.0,83,0.00,,,0.00,,2013-08-29 17:13:00,
2013-08-29 13:23:00,75.0,69.0,30.17,North,11,10.0,18.0,81,0.00,,,0.00,,2013-08-29 17:23:00,
2013-08-29 13:44:00,74.0,68.0,30.17,NNE,13,16.0,18.0,81,0.00,,,0.00,,2013-08-29 17:44:00,
2013-08-29 13:53:00,75.0,68.0,30.17,North,9,12.0,17.0,78,0.00,,,0.00,,2013-08-29 17:53:00,
2013-08-29 14:12:00,75.0,67.0,30.17,North,349,12.0,16.0,77,0.00,,,0.00,,2013-08-29 18:12:00,
2013-08-29 14:22:00,76.0,69.0,30.17,North,1,14.0,22.0,78,0.00,,,0.00,,2013-08-29 18:22:00,
2013-08-29 14:42:00,76.0,68.0,30.16,North,8,15.0,22.0,76,0.00,,,0.00,,2013-08-29 18:42:00,
2013-08-29 14:52:00,76.0,67.0,30.16,North,11,14.0,23.0,75,0.00,,,0.00,,2013-08-29 18:52:00,
2013-08-29 15:11:00,76.0,67.0,30.16,NNE,13,18.0,21.0,75,0.00,,,0.00,,2013-08-29 19:11:00,
2013-08-29 15:22:00,76.0,66.0,30.15,NNE,32,19.0,24.0,71,0.00,,,0.00,,2013-08-29 19:22:00,
2013-08-29 15:42:00,76.0,67.0,30.15,NNE,12,16.0,22.0,73,0.00,,,0.00,,2013-08-29 19:42:00,
2013-08-29 15:53:00,77.0,68.0,30.15,NE,43,8.0,14.0,75,0.00,,,0.00,,2013-08-29 19:53:00,
2013-08-29 16:13:00,77.0,67.0,30.15,NE,41,13.0,17.0,72,0.00,,,0.00,,2013-08-29 20:13:00,
2013-08-29 16:22:00,77.0,66.0,30.14,NE,40,18.0,21.0,69,0.00,,,0.00,,2013-08-29 20:22:00,
2013-08-29 16:42:00,77.0,65.0,30.14,NNE,27,17.0,22.0,67,0.00,,,0.00,,2013-08-29 20:42:00,
2013-08-29 16:52:00,77.0,67.0,30.14,NE,41,11.0,17.0,72,0.00,,,0.00,,2013-08-29 20:52:00,
2013-08-29 17:12:00,78.0,67.0,30.14,NE,44,13.0,17.0,69,0.00,,,0.00,,2013-08-29 21:12:00,
2013-08-29 17:22:00,78.0,68.0,30.14,NNE,29,11.0,16.0,71,0.00,,,0.00,,2013-08-29 21:22:00,
2013-08-29 17:44:00,77.0,69.0,30.14,ENE,77,9.0,12.0,76,0.00,,,0.00,,2013-08-29 21:44:00,
2013-08-29 17:54:00,76.0,69.0,30.14,ENE,73,6.0,9.0,78,0.00,,,0.00,,2013-08-29 21:54:00,
2013-08-29 18:14:00,76.0,68.0,30.14,East,84,7.0,10.0,77,0.00,,,0.00,,2013-08-29 22:14:00,
2013-08-29 18:24:00,77.0,68.0,30.14,ENE,65,7.0,9.0,75,0.00,,,0.00,,2013-08-29 22:24:00,
2013-08-29 18:43:00,77.0,69.0,30.14,ENE,60,6.0,10.0,77,0.00,,,0.00,,2013-08-29 22:43:00,
2013-08-29 18:53:00,77.0,69.0,30.14,NE,51,7.0,9.0,76,0.00,,,0.00,,2013-08-29 22:53:00,
2013-08-29 19:13:00,77.0,67.0,30.14,NE,46,14.0,15.0,72,0.00,,,0.00,,2013-08-29 23:13:00,
2013-08-29 19:22:00,77.0,68.0,30.14,NNE,32,12.0,13.0,74,0.00,,,0.00,,2013-08-29 23:22:00,
2013-08-29 19:53:00,76.0,67.0,30.14,ENE,58,10.0,15.0,74,0.00,,,0.00,,2013-08-29 23:53:00,
2013-08-29 20:12:00,76.0,67.0,30.15,NE,44,11.0,13.0,74,0.00,,,0.00,,2013-08-30 00:12:00,
2013-08-29 20:22:00,76.0,67.0,30.15,NE,43,14.0,15.0,75,0.00,,,0.00,,2013-08-30 00:22:00,
2013-08-29 20:42:00,76.0,68.0,30.16,NE,36,12.0,13.0,76,0.00,,,0.00,,2013-08-30 00:42:00,
2013-08-29 20:52:00,75.0,67.0,30.16,NE,36,12.0,14.0,76,0.00,,,0.00,,2013-08-30 00:52:00,
2013-08-29 21:12:00,75.0,67.0,30.16,ENE,57,15.0,16.0,77,0.00,,,0.00,,2013-08-30 01:12:00,
2013-08-29 21:22:00,75.0,67.0,30.17,ENE,66,14.0,17.0,75,0.00,,,0.00,,2013-08-30 01:22:00,
2013-08-29 21:42:00,76.0,67.0,30.18,ENE,63,8.0,15.0,74,0.00,,,0.00,,2013-08-30 01:42:00,
2013-08-29 21:52:00,75.0,66.0,30.18,East,79,9.0,13.0,73,0.00,,,0.00,,2013-08-30 01:52:00,
2013-08-29 22:11:00,75.0,66.0,30.18,ENE,65,9.0,14.0,74,0.00,,,0.00,,2013-08-30 02:11:00,
2013-08-29 22:22:00,75.0,67.0,30.18,East,85,7.0,8.0,75,0.00,,,0.00,,2013-08-30 02:22:00,
2013-08-29 22:42:00,75.0,67.0,30.19,East,86,10.0,10.0,77,0.00,,,0.00,,2013-08-30 02:42:00,
2013-08-29 22:52:00,72.0,68.0,30.19,East,91,11.0,18.0,87,0.00,,,0.00,,2013-08-30 02:52:00,
2013-08-29 23:12:00,72.0,70.0,30.19,East,84,14.0,17.0,92,0.00,,,0.00,,2013-08-30 03:12:00,
2013-08-29 23:22:00,71.0,70.0,30.19,ESE,120,12.0,18.0,96,0.00,,,0.00,,2013-08-30 03:22:00,
2013-08-29 23:55:00,70.0,69.0,30.18,SE,133,9.0,20.0,98,0.00,,,0.00,,2013-08-30 03:55:00,